Flag for Uruguay Weather past 2 weeks in Montevideo, Uruguay

Now
57 °F

Passing clouds.


Feels Like: 55 °F
Forecast: 57 / 66 °F
Wind: 12 mph from South

Location: Carrasco

Current Time: Oct 20, 2014 at 6:38:52 AM

Latest Report: Oct 20, 2014 at 6:00 AM


Visibility: N/A

Pressure: 30.07 "Hg

Humidity: 72%

Dew point: 48 °F

Location of MontevideoLocation

Historic Weather in Montevideo — Graph

°F

Montevideo temperature yesterday

Maximum temperature yesterday: 72 °F (at 5:00 PM)
Minimum temperature yesterday: 63 °F (at 6:00 AM)
Average temperature yesterday: 66 °F

Past Weeks' High & Low Weather Summary

 TemperatureHumidityPressure
High81 °F (Oct 15, 4:00 PM)100% (Oct 6, 12:00 AM)30.18 "Hg (Oct 6, 12:00 AM)
Low50 °F (Oct 13, 4:00 AM)26% (Oct 15, 4:00 PM)29.53 "Hg (Oct 9, 4:00 PM)
Average64 °F76%29.92 "Hg
* Reported Oct 5 5:00 AM — Oct 20 5:00 AM, Montevideo, Weather by CustomWeather, © 2014

Note: Actual official high and low records may vary slightly from our data, if they occured in-between our weather recording intervals... More about our weather records

Advertising

Montevideo weather history for previous 24 hours

 ConditionsComfort  
Time TempWeatherWind HumidityBarometerVisibility
5:00 AM
Oct 20
59 °FPassing clouds.12 mph72%30.07 "HgN/A
4:00 AM59 °FPassing clouds.10 mph72%30.07 "HgN/A
3:00 AM59 °FPassing clouds.10 mph72%30.07 "HgN/A
1:00 AM61 °FPassing clouds.15 mph77%30.04 "HgN/A
12:00 AM61 °FPassing clouds.18 mph83%30.01 "HgN/A
11:00 PM
Oct 19
64 °FClear.12 mph78%30.01 "Hg10 mi
10:00 PM63 °FClear.6 mph64%29.98 "Hg10 mi
9:00 PM63 °FClear.5 mph64%29.98 "Hg10 mi
8:00 PM64 °FSunny.5 mph64%29.98 "Hg10 mi
7:00 PM70 °FSunny.9 mph43%29.98 "Hg10 mi
6:00 PM72 °FSunny.7 mph41%29.98 "Hg10 mi
5:00 PM72 °FSunny.7 mph38%29.98 "Hg10 mi
4:00 PM70 °FSunny.15 mph40%29.98 "Hg10 mi
3:00 PM70 °FSunny.12 mph43%29.98 "Hg10 mi
2:00 PM70 °FSunny.14 mph43%29.98 "Hg10 mi
1:00 PM68 °FSunny.10 mph46%29.98 "Hg10 mi
12:00 PM68 °FSunny.15 mph49%29.95 "Hg10 mi
11:00 AM68 °FSunny.16 mph46%29.95 "Hg10 mi
10:00 AM66 °FSunny.18 mph49%29.92 "Hg10 mi
9:00 AM66 °FSunny.16 mph49%29.92 "Hg10 mi
8:00 AM64 °FSunny.17 mph56%29.89 "Hg10 mi
7:00 AM63 °FSunny.12 mph64%29.86 "Hg10 mi
6:00 AM63 °FPassing clouds.8 mph68%29.83 "HgN/A
Weather by CustomWeather, © 2014

See weather overviewHow to use our weather pages